Weather History for KNBT - January, 2014

Change the Weather History Date:

Sunday, January 26, 2014

  Actual Average (KMRH) Record (KMRH)
Temperature  
Mean Temperature 45 °F -  
Max Temperature 53 °F 55 °F 74 °F (1950)
Min Temperature 37 °F 36 °F 23 °F (1961)
Degree Days  
Heating Degree Days 20    
Moisture  
Dew Point 28 °F    
Average Humidity 53    
Maximum Humidity 71    
Minimum Humidity 34    
Precipitation  
Precipitation 0.00 in - - ()
Sea Level Pressure  
Sea Level Pressure 29.97 in    
Wind  
Wind Speed 10 mph (SW)    
Max Wind Speed 15 mph    
Max Gust Speed 24 mph    
Averages and records for this station are not official NWS values.
T = Trace of Precipitation, MM = Missing Value Source: NWS Daily Summary

Daily Weather History Graph

Daily Weather History Graph

Search for Another Location

Airport or City:

Trip Planner

Search our weather history database for the weather conditions in past years. The results will help you decide how hot, cold, wet, or windy it might be!

Date:

Astronomy

Jan. 26, 2014 Rise Set
Actual Time 7:08 AM EST 5:28 PM EST
Civil Twilight 6:41 AM EST 5:55 PM EST
Nautical Twilight 6:11 AM EST 6:26 PM EST
Astronomical Twilight 5:41 AM EST 6:56 PM EST
Moon 2:43 AM EST (1/26) 1:16 PM EST (1/26)
Length of Visible Light 11h 13m
Length of Day
10h 19m
Waning Crescent, 24% of the Moon is Illuminated
Jan 26
Waning Crescent
Jan 30
New
Feb 6
First Quarter
Feb 14
Full
Feb 22
Last Quarter

Hourly Weather History & Observations

Time (EST) Temp. Windchill Dew Point Humidity Pressure Visibility Wind Dir Wind Speed Gust Speed Precip Events Conditions
12:56 AM 43.0 °F 36.8 °F 21.0 °F 42% 29.86 in - WSW 11.5 mph - N/A   Clear
2:56 AM 42.1 °F 35.2 °F 23.0 °F 47% 29.90 in - WSW 12.7 mph 24.2 mph N/A   Clear
3:56 AM 41.0 °F 33.9 °F 24.1 °F 51% 29.93 in - West 12.7 mph - N/A   Clear
4:56 AM 39.9 °F 32.1 °F 24.1 °F 53% 29.95 in - West 13.8 mph - N/A   Clear
5:56 AM 37.9 °F 32.7 °F 24.1 °F 57% 29.97 in - West 6.9 mph - N/A   Clear
6:56 AM 37.0 °F 31.6 °F 24.1 °F 59% 30.00 in - West 6.9 mph - N/A   Clear
7:56 AM 37.0 °F 33.3 °F 25.0 °F 62% 30.03 in - WSW 4.6 mph - N/A   Clear
8:56 AM 43.0 °F 36.8 °F 24.1 °F 47% 30.03 in - West 11.5 mph - N/A   Clear
9:56 AM 44.1 °F 40.1 °F 21.9 °F 42% 30.04 in - Variable 6.9 mph - N/A   Clear
10:56 AM 46.0 °F 43.9 °F 21.9 °F 39% 30.04 in - ENE 4.6 mph - N/A   Clear
11:56 AM 46.9 °F - 21.9 °F 37% 30.01 in - ENE 6.9 mph - N/A   Clear
12:56 PM 50.0 °F - 25.0 °F 38% 29.97 in - SSE 9.2 mph - N/A   Clear
1:56 PM 53.1 °F - 25.0 °F 34% 29.96 in - South 12.7 mph 20.7 mph N/A   Clear
2:56 PM 52.0 °F - 28.9 °F 41% 29.95 in - South 13.8 mph 20.7 mph N/A   Clear
3:56 PM 52.0 °F - 35.1 °F 53% 29.96 in - SSW 15.0 mph - N/A   Clear
5:56 PM 48.0 °F - 34.0 °F 58% 29.95 in - SSW 6.9 mph - N/A   Clear
6:56 PM 46.9 °F - 36.0 °F 66% 29.95 in - South 6.9 mph - N/A   Clear
7:56 PM 46.0 °F 41.4 °F 36.0 °F 68% 29.95 in - SSW 9.2 mph - N/A   Clear
8:56 PM 46.9 °F - 35.1 °F 63% 29.97 in - SW 9.2 mph - N/A   Clear
9:56 PM 46.0 °F 41.4 °F 35.1 °F 66% 29.97 in - SW 9.2 mph - N/A   Clear
10:56 PM 46.0 °F 41.4 °F 37.0 °F 71% 29.98 in - SSW 9.2 mph - N/A   Clear
11:56 PM 46.9 °F - 37.9 °F 71% 29.97 in - SW 8.1 mph - N/A   Clear